Wind_Speed
6 7 7 7 5 3 2 1 2 3 4 5 6 6 7 8 8 7 8 8 9 11 12 14 16 18 19 21 23 25 26 28 30 32 33 35 36 38 39 40 41 42 43 44 45 46 46 46 46
9 9 9 9 8 7 5 5 5 6 6 5 5 5 6 7 8 8 9 11 12 14 15 17 18 20 21 23 25 27 29 31 32 34 36 38 39 41 42 44 45 46 47 48 49 49 50 51 51
13 13 11 10 10 10 8 7 6 6 6 5 4 5 6 7 9 10 12 13 15 16 18 19 20 22 23 25 27 30 32 34 36 38 39 41 43 44 46 47 49 50 51 52 53 54 54 55 55
14 13 12 11 11 10 9 7 6 6 5 5 5 6 8 9 11 13 14 16 17 18 20 21 22 24 26 28 31 33 35 37 39 41 43 44 46 48 49 51 52 53 55 56 57 58 59 59 60
13 12 12 11 10 9 7 6 5 4 4 5 6 9 11 12 14 15 17 18 19 20 21 23 25 27 29 31 34 36 38 40 42 44 45 47 48 50 52 54 55 57 59 60 62 63 64 64 65
11 10 11 10 7 6 5 4 4 4 6 8 9 11 13 15 16 17 18 19 20 22 24 26 28 30 33 35 37 39 41 42 44 46 47 49 51 53 55 58 60 62 64 66 67 68 70 70 71
9 7 7 6 4 3 4 6 7 8 10 11 12 13 15 16 17 18 20 21 23 25 27 29 31 33 35 37 39 41 43 44 46 48 50 53 56 59 61 64 66 68 70 71 73 74 76 77 77
5 4 4 4 4 5 8 9 11 12 13 14 15 15 17 18 19 20 22 23 25 28 30 32 34 36 38 39 41 42 44 46 49 52 55 58 61 64 67 70 72 75 77 79 81 82 84 85 86
3 5 6 7 8 10 12 13 14 15 15 16 17 17 18 20 21 22 24 26 28 30 33 35 37 38 40 41 43 45 47 49 52 55 59 62 65 68 71 74 76 79 83 86 89 92 94 96 97
7 9 10 12 13 14 14 15 16 16 16 17 17 18 19 21 22 24 26 28 30 32 35 36 38 40 41 43 45 47 50 53 55 59 62 65 68 71 73 76 80 84 88 92 97 102 105 108 109
11 13 14 15 15 15 15 15 16 15 15 16 18 19 21 22 24 26 28 30 33 34 36 38 39 42 44 46 48 50 52 55 59 62 65 68 71 73 76 79 83 88 94 99 105 109 113 115 116
13 14 14 15 15 14 14 14 14 15 15 17 18 20 21 23 25 28 30 32 33 36 37 39 41 44 46 48 50 52 55 58 62 65 68 70 73 76 79 84 90 96 101 106 110 111 110 109 108
12 12 12 12 13 12 13 13 13 14 15 17 18 20 22 24 26 29 31 33 35 37 39 41 43 45 47 50 52 55 58 61 64 67 70 72 75 78 83 89 95 101 106 108 106 102 97 93 90
11 11 11 11 11 11 11 12 13 14 15 17 19 20 22 25 27 29 32 34 36 38 41 43 45 47 49 52 54 57 60 63 66 68 71 73 77 82 88 94 100 103 103 99 93 88 85 83 82
10 10 10 10 10 10 11 12 13 13 15 17 19 21 23 25 27 30 32 35 37 40 42 44 46 48 51 53 55 58 61 64 67 69 72 76 81 86 93 98 100 99 93 87 84 81 80 80 81
9 9 9 9 10 11 11 10 12 13 15 17 19 21 23 26 28 31 33 36 39 41 43 45 47 49 51 54 56 59 62 65 67 70 74 78 84 90 96 98 96 91 85 82 80 79 79 79 80
8 8 8 9 10 11 11 11 12 14 16 18 20 22 24 26 29 32 34 37 40 42 44 46 48 50 52 54 57 59 63 65 68 72 76 81 87 93 96 95 90 84 81 78 77 77 77 78 79
8 9 9 9 10 10 11 12 13 15 17 19 21 23 25 27 30 33 35 38 40 43 45 47 49 50 52 55 58 60 63 66 69 73 78 84 90 94 94 90 84 80 77 76 75 74 75 77 76
8 8 9 9 9 11 12 13 15 16 18 20 22 24 27 29 31 34 37 39 42 44 47 49 50 51 53 55 58 61 64 67 71 75 80 86 91 93 90 85 80 77 75 74 73 74 75 73 70
7 7 7 8 9 11 12 13 15 17 19 21 24 26 28 31 33 35 39 42 44 47 49 51 52 53 54 56 59 62 65 68 72 77 82 87 91 90 86 81 77 75 73 72 72 74 74 69 65
6 6 7 7 8 10 11 13 15 17 19 22 25 28 30 33 36 38 41 44 47 49 52 54 55 55 56 58 60 63 66 69 73 78 84 88 89 87 83 78 75 73 71 71 72 74 72 66 59
6 6 6 7 8 8 10 11 14 16 19 22 25 28 31 34 37 40 43 46 48 51 55 57 58 59 59 60 62 64 68 70 74 79 84 87 87 84 80 75 73 72 71 71 72 73 69 64 57
6 6 6 7 8 9 11 12 14 17 19 22 25 28 32 35 38 42 45 47 50 53 56 60 62 62 62 62 64 66 69 72 75 80 84 86 85 81 77 73 72 71 70 70 71 71 66 60 55
9 8 8 8 9 10 12 14 16 18 21 23 26 29 32 35 39 43 46 49 52 55 58 61 64 66 65 65 66 68 70 72 76 80 84 85 83 78 74 72 71 70 70 70 70 70 65 58 51
11 11 10 11 12 12 14 15 17 20 22 25 27 30 32 36 40 43 47 50 53 56 59 62 66 68 69 68 68 69 71 73 77 80 83 83 81 76 72 70 70 69 69 69 69 69 63 57 50
13 13 13 14 14 15 16 17 18 20 22 25 28 31 34 37 40 44 47 51 54 57 60 63 67 70 71 71 70 71 72 74 77 80 82 82 80 75 71 69 69 69 69 68 69 68 62 56 48
16 16 16 17 17 17 18 19 19 21 24 26 29 31 34 37 40 44 48 52 55 58 61 64 67 71 73 73 72 72 73 75 77 80 81 81 78 74 70 69 68 68 68 68 68 67 62 55 48
19 19 19 19 20 21 21 22 24 24 27 30 32 34 36 39 42 45 49 53 56 59 62 65 67 71 74 75 74 73 74 75 77 80 80 80 77 73 70 68 68 68 68 67 68 67 61 54 47
22 21 22 23 24 25 25 24 26 27 29 32 35 37 40 42 45 47 50 53 57 60 62 65 68 71 74 76 75 75 74 75 77 79 80 79 76 73 69 68 67 67 67 67 67 66 60 53 47
25 24 25 26 26 27 29 26 28 30 31 33 35 38 41 44 46 48 51 54 57 60 63 65 68 71 74 76 77 76 75 75 77 78 79 78 75 72 69 67 67 66 66 66 66 64 59 53 47
Wind_Direction
119 128 133 133 132 119 94 64 61 71 70 60 53 47 40 33 27 19 5 352 338 327 318 314 312 312 311 311 310 309 308 307 306 304 303 301 299 297 295 292 290 288 286 284 283 281 279 277 275
108 112 117 119 118 102 99 90 89 85 82 74 64 46 29 15 2 350 340 330 322 316 314 313 313 313 313 312 312 311 310 308 306 304 303 301 299 297 295 293 291 289 286 284 282 280 278 277 275
103 104 107 109 99 96 99 97 96 92 83 71 51 23 359 345 335 328 323 319 317 316 316 316 315 315 315 314 313 311 309 307 306 304 303 301 299 298 296 294 292 289 287 285 282 280 278 276 274
100 102 102 100 95 95 96 94 88 80 66 40 12 345 332 322 318 317 317 318 318 318 317 316 316 315 314 313 311 310 308 307 307 305 304 303 301 299 297 295 293 291 288 286 283 281 278 275 273
98 99 99 94 88 86 83 74 62 45 15 352 337 322 316 313 315 316 317 318 317 316 315 314 314 313 312 311 311 310 309 309 308 306 305 303 302 300 298 297 294 292 290 288 286 283 280 277 274
98 95 93 91 82 72 55 33 10 347 327 319 317 313 311 312 313 314 315 315 315 314 314 314 314 313 313 312 312 311 311 309 308 307 306 305 304 302 301 299 297 295 293 290 288 286 283 280 277
91 85 79 77 65 29 348 332 322 318 314 312 312 310 310 312 313 314 315 315 315 315 315 315 314 313 313 312 312 312 311 311 310 309 308 308 307 305 303 301 300 298 296 293 290 287 284 282 279
72 51 36 16 341 321 316 313 312 311 309 309 310 311 312 314 315 315 316 316 316 315 315 314 314 313 313 313 313 313 313 313 312 312 311 309 308 306 304 302 301 298 296 294 292 289 286 283 280
352 333 330 323 315 309 307 306 307 308 308 310 312 314 315 316 317 316 316 316 316 315 315 315 314 314 315 315 315 316 315 315 313 312 311 309 307 306 304 302 301 299 297 295 293 290 288 285 282
314 310 309 309 307 304 304 304 305 308 310 312 315 317 317 317 317 317 317 316 316 316 315 316 315 316 317 317 317 317 316 315 313 312 310 309 307 305 304 302 301 299 297 296 294 292 289 286 283
304 304 304 304 304 304 305 306 308 312 314 317 319 319 320 319 319 318 318 317 317 317 317 317 318 318 319 319 318 317 316 314 312 311 310 308 307 306 305 303 301 300 298 296 294 291 288 286 284
306 306 305 305 306 307 309 312 316 319 321 322 322 321 320 320 319 319 319 318 319 319 319 319 320 320 320 319 318 316 315 313 312 311 310 309 308 307 306 305 303 301 299 296 293 291 289 287 285
312 312 312 312 313 315 319 322 324 325 326 324 323 322 322 322 321 321 321 321 322 322 322 322 321 321 320 318 317 316 314 313 312 311 310 310 309 309 308 307 305 303 300 298 297 294 292 289 286
323 323 322 322 323 326 329 329 328 328 328 327 326 326 326 326 325 325 325 325 325 325 324 323 322 320 319 318 317 316 315 314 313 312 312 312 312 312 311 309 307 305 304 302 301 298 296 293 289
331 331 331 331 333 335 336 334 332 332 331 331 331 331 331 331 330 330 329 329 328 327 325 324 322 321 320 319 317 316 315 315 315 314 314 315 315 314 313 311 310 309 308 307 305 303 300 297 294
336 337 337 336 338 338 340 343 336 337 337 338 338 338 338 337 336 335 335 333 331 329 327 325 323 322 321 320 319 318 317 317 317 317 317 318 317 317 316 315 314 313 312 311 309 307 304 302 299
335 337 343 341 341 344 346 350 345 345 346 346 346 345 344 343 342 341 339 337 334 332 329 327 324 323 322 321 320 320 320 320 320 320 320 320 320 320 319 318 318 317 316 314 312 311 309 306 304
342 345 349 351 347 352 354 355 355 352 353 352 351 350 348 348 348 345 343 341 339 336 333 330 327 325 323 323 322 322 322 322 322 323 323 323 323 323 322 322 321 320 319 318 316 314 313 311 309
342 346 349 354 356 359 360 360 1 359 358 357 356 354 353 352 352 350 347 345 343 341 338 334 331 328 326 325 325 325 325 325 325 325 325 326 326 326 326 325 325 324 323 322 320 319 318 316 313
335 341 349 357 358 2 3 3 3 4 2 360 358 357 355 354 353 352 350 349 347 345 343 340 336 332 330 328 327 327 327 327 327 328 328 329 329 329 329 328 328 327 326 325 324 323 323 321 318
324 335 345 354 360 3 2 2 2 3 2 0 358 356 355 353 352 351 350 349 348 347 346 345 341 337 334 332 330 330 330 330 330 330 331 331 332 332 332 331 331 330 330 329 328 328 327 325 323
311 322 334 342 349 352 355 358 358 0 1 358 356 355 353 352 350 349 349 348 348 348 348 347 345 342 338 335 334 333 333 333 332 333 333 334 335 335 334 334 333 333 333 332 332 332 330 328 326
293 303 314 325 331 337 341 348 354 355 356 355 354 354 353 351 350 348 348 347 347 348 348 348 348 345 342 339 337 336 335 335 335 335 336 337 338 337 337 337 336 336 335 335 335 335 333 331 328
281 287 297 308 318 320 332 341 344 348 350 351 352 352 352 351 349 348 348 347 347 347 347 348 348 347 345 342 340 338 338 337 337 337 339 340 340 340 339 339 339 338 338 338 338 339 337 334 330
275 283 290 295 302 314 326 332 336 340 343 345 347 349 350 350 350 348 348 347 347 346 347 348 348 348 347 344 342 341 340 339 339 340 341 342 343 342 341 341 341 341 340 341 341 341 340 336 332
269 276 282 291 302 312 317 321 327 331 337 340 342 345 347 348 349 348 348 347 347 346 347 347 348 349 348 346 344 342 341 341 341 342 343 344 345 344 344 343 344 343 343 343 344 344 342 339 335
265 271 278 286 294 301 307 312 318 325 331 335 339 342 343 344 346 347 347 347 347 346 346 347 348 349 349 347 346 344 343 342 342 344 345 346 347 346 346 346 346 346 345 346 346 346 345 343 339
263 269 276 283 289 295 302 310 317 324 327 332 336 338 339 342 344 346 346 347 346 346 346 346 347 348 349 348 347 345 344 344 344 345 347 348 348 348 348 347 348 348 347 348 348 349 348 346 343
264 268 274 280 287 294 300 309 313 319 325 329 332 334 336 338 341 343 344 345 346 346 345 345 346 347 349 349 348 346 345 345 345 347 349 350 350 350 349 349 349 349 349 350 351 351 350 349 346
263 267 273 278 284 289 296 306 308 313 319 323 326 329 332 334 337 340 342 343 345 345 345 345 346 347 348 349 349 347 346 346 346 348 350 351 352 351 351 351 351 351 351 352 353 353 352 351 350
Height
5873 5874 5875 5877 5878 5879 5878 5879 5879 5880 5880 5881 5881 5881 5882 5882 5883 5885 5882 5880 5880 5879 5878 5877 5875 5874 5873 5871 5870 5868 5866 5864 5862 5860 5858 5856 5854 5853 5851 5849 5847 5845 5844 5842 5841 5839 5838 5838 5838
5875 5876 5877 5878 5878 5878 5880 5880 5881 5881 5881 5881 5882 5882 5882 5882 5882 5881 5880 5879 5879 5877 5876 5874 5873 5871 5870 5868 5866 5864 5862 5860 5857 5855 5852 5850 5848 5845 5843 5841 5839 5837 5835 5833 5832 5830 5829 5828 5827
5877 5877 5879 5879 5879 5879 5881 5881 5882 5882 5882 5882 5882 5883 5883 5882 5881 5880 5879 5878 5877 5875 5873 5872 5870 5868 5866 5864 5862 5860 5857 5854 5851 5849 5846 5843 5840 5837 5834 5832 5829 5827 5825 5823 5821 5820 5818 5817 5816
5879 5880 5881 5882 5881 5881 5882 5883 5883 5883 5883 5883 5883 5883 5882 5882 5881 5879 5878 5876 5874 5873 5871 5869 5867 5865 5862 5860 5857 5854 5851 5848 5845 5841 5838 5834 5831 5828 5825 5822 5819 5816 5813 5811 5809 5807 5805 5804 5803
5881 5883 5883 5883 5883 5884 5884 5884 5884 5884 5884 5883 5883 5882 5881 5880 5878 5877 5875 5874 5872 5870 5868 5865 5863 5861 5858 5855 5852 5848 5845 5841 5837 5833 5829 5825 5821 5818 5814 5810 5807 5803 5800 5797 5794 5792 5790 5788 5787
5885 5885 5885 5885 5885 5886 5886 5885 5885 5884 5884 5883 5882 5881 5879 5878 5876 5875 5873 5871 5869 5867 5864 5862 5859 5856 5853 5849 5845 5841 5837 5833 5829 5824 5820 5815 5811 5807 5802 5798 5794 5790 5786 5782 5778 5775 5772 5770 5769
5887 5887 5886 5886 5886 5886 5886 5885 5884 5884 5882 5881 5880 5879 5877 5875 5874 5872 5870 5867 5865 5863 5860 5857 5854 5850 5846 5842 5838 5833 5829 5824 5820 5815 5810 5804 5799 5794 5789 5784 5778 5773 5769 5764 5760 5756 5752 5749 5747
5888 5889 5887 5887 5886 5886 5885 5884 5883 5882 5881 5879 5878 5877 5875 5873 5870 5868 5866 5864 5861 5858 5855 5852 5848 5844 5840 5835 5830 5826 5821 5815 5810 5804 5799 5793 5788 5781 5775 5769 5763 5756 5750 5744 5738 5733 5729 5725 5722
5889 5890 5888 5887 5886 5885 5884 5883 5881 5880 5878 5876 5875 5874 5872 5869 5867 5864 5862 5859 5857 5853 5850 5846 5841 5837 5832 5827 5822 5817 5812 5806 5801 5795 5789 5782 5776 5769 5762 5754 5747 5739 5731 5722 5714 5707 5700 5695 5691
5889 5889 5887 5886 5885 5883 5882 5880 5879 5877 5876 5874 5872 5870 5868 5865 5863 5860 5858 5855 5852 5848 5844 5839 5834 5829 5824 5819 5814 5809 5803 5797 5791 5785 5778 5771 5764 5756 5748 5740 5731 5721 5711 5700 5689 5679 5669 5661 5656
5887 5886 5885 5883 5882 5881 5879 5878 5876 5874 5873 5871 5869 5866 5864 5861 5859 5856 5853 5849 5846 5842 5837 5833 5828 5822 5817 5811 5806 5800 5794 5788 5782 5775 5767 5759 5751 5743 5734 5724 5713 5702 5690 5677 5664 5651 5638 5627 5619
5885 5884 5882 5881 5880 5878 5876 5875 5873 5872 5870 5868 5866 5863 5860 5858 5855 5851 5848 5844 5840 5836 5831 5826 5821 5815 5809 5803 5797 5791 5785 5778 5771 5764 5756 5748 5738 5729 5718 5706 5694 5680 5665 5650 5634 5619 5606 5595 5585
5883 5881 5880 5879 5877 5875 5874 5872 5871 5869 5867 5865 5862 5860 5857 5854 5851 5847 5843 5839 5835 5830 5825 5819 5814 5808 5802 5796 5790 5783 5776 5769 5761 5752 5743 5734 5724 5713 5700 5686 5670 5652 5634 5616 5599 5585 5572 5562 5553
5881 5879 5878 5876 5875 5873 5872 5870 5869 5867 5864 5862 5859 5856 5853 5850 5847 5843 5838 5833 5829 5824 5819 5813 5807 5801 5795 5788 5781 5774 5766 5758 5749 5740 5730 5719 5708 5694 5679 5662 5643 5623 5603 5584 5568 5555 5543 5533 5524
5879 5878 5877 5875 5873 5872 5871 5869 5866 5864 5861 5859 5856 5853 5850 5846 5842 5838 5834 5829 5824 5819 5813 5807 5800 5794 5787 5780 5772 5765 5756 5747 5737 5727 5716 5703 5689 5674 5656 5636 5615 5594 5574 5557 5543 5530 5518 5506 5496
5878 5877 5875 5874 5872 5870 5870 5867 5864 5861 5859 5856 5853 5850 5846 5843 5838 5834 5829 5824 5819 5813 5807 5801 5793 5786 5779 5771 5763 5755 5745 5735 5724 5713 5700 5686 5670 5652 5632 5610 5589 5568 5550 5534 5520 5507 5494 5481 5468
5877 5875 5874 5872 5870 5868 5866 5864 5861 5858 5856 5853 5850 5847 5843 5839 5835 5830 5825 5820 5814 5808 5801 5794 5787 5779 5771 5762 5754 5744 5734 5723 5711 5698 5684 5668 5650 5630 5609 5587 5566 5547 5530 5514 5499 5486 5471 5457 5442
5875 5873 5871 5870 5868 5866 5864 5861 5859 5856 5853 5850 5847 5844 5840 5836 5831 5826 5821 5815 5809 5803 5795 5788 5780 5771 5762 5753 5743 5733 5722 5710 5697 5683 5667 5650 5631 5610 5588 5566 5546 5528 5512 5496 5481 5467 5452 5434 5417
5874 5872 5870 5869 5866 5864 5862 5860 5857 5854 5851 5848 5845 5841 5837 5833 5828 5823 5817 5811 5804 5797 5790 5781 5772 5763 5754 5744 5733 5722 5710 5697 5683 5668 5651 5633 5613 5591 5569 5548 5529 5512 5495 5479 5463 5447 5432 5415 5396
5873 5871 5869 5868 5865 5863 5860 5858 5855 5852 5849 5846 5842 5838 5834 5829 5824 5819 5812 5806 5799 5792 5784 5775 5765 5755 5745 5734 5723 5711 5698 5685 5670 5654 5636 5617 5596 5573 5552 5532 5514 5497 5480 5464 5447 5430 5413 5397 5379
5872 5870 5868 5866 5864 5861 5859 5857 5854 5851 5847 5844 5840 5835 5831 5825 5820 5814 5808 5801 5794 5786 5777 5768 5757 5746 5735 5724 5712 5700 5687 5672 5657 5640 5621 5601 5579 5557 5537 5517 5500 5483 5466 5450 5432 5414 5396 5380 5367
5871 5869 5867 5865 5863 5861 5859 5857 5853 5849 5845 5842 5838 5833 5828 5822 5816 5810 5803 5796 5788 5779 5770 5760 5749 5737 5726 5714 5701 5689 5675 5660 5644 5627 5608 5587 5565 5543 5523 5505 5487 5470 5453 5436 5419 5401 5382 5366 5354
5869 5867 5865 5863 5861 5859 5856 5854 5851 5847 5844 5840 5835 5830 5825 5819 5812 5805 5798 5790 5782 5773 5763 5752 5741 5729 5716 5704 5691 5678 5663 5648 5632 5614 5595 5574 5552 5531 5512 5494 5477 5459 5443 5425 5408 5390 5372 5355 5342
5867 5866 5864 5861 5859 5858 5854 5851 5848 5844 5840 5836 5831 5826 5821 5815 5808 5800 5793 5784 5776 5766 5756 5745 5733 5721 5707 5694 5681 5667 5653 5637 5621 5603 5583 5562 5542 5521 5502 5484 5467 5450 5433 5416 5398 5380 5363 5347 5334
5864 5863 5862 5859 5857 5855 5851 5848 5845 5841 5836 5832 5827 5822 5816 5810 5803 5795 5787 5779 5770 5760 5749 5738 5726 5713 5699 5685 5671 5657 5643 5627 5610 5592 5573 5552 5532 5513 5494 5476 5459 5442 5425 5408 5390 5372 5355 5340 5327
5861 5860 5859 5857 5854 5851 5848 5845 5843 5838 5833 5828 5823 5817 5811 5805 5798 5790 5782 5773 5764 5753 5742 5731 5718 5705 5691 5677 5663 5648 5633 5617 5600 5582 5563 5543 5523 5504 5486 5469 5452 5435 5418 5400 5383 5365 5348 5333 5320
5858 5856 5855 5853 5849 5847 5844 5841 5839 5834 5829 5825 5819 5813 5807 5800 5793 5785 5776 5767 5757 5747 5736 5724 5712 5698 5684 5669 5654 5639 5624 5608 5591 5573 5554 5534 5515 5497 5479 5462 5445 5429 5411 5394 5377 5360 5343 5328 5315
5854 5852 5851 5848 5845 5843 5840 5836 5833 5828 5823 5819 5813 5808 5802 5795 5787 5779 5770 5761 5751 5741 5730 5717 5705 5691 5677 5662 5647 5632 5616 5600 5583 5565 5546 5527 5508 5490 5473 5457 5440 5423 5407 5389 5372 5355 5338 5324 5311
5849 5848 5845 5843 5840 5837 5833 5834 5827 5822 5817 5812 5807 5801 5795 5788 5781 5773 5765 5755 5745 5735 5723 5711 5698 5685 5671 5656 5640 5625 5609 5593 5576 5558 5540 5521 5503 5485 5468 5452 5435 5419 5402 5386 5369 5352 5336 5321 5309
5843 5842 5840 5838 5835 5831 5827 5829 5821 5817 5812 5807 5802 5796 5789 5782 5775 5767 5758 5749 5739 5728 5717 5705 5692 5679 5664 5649 5634 5618 5602 5586 5570 5552 5534 5516 5498 5480 5463 5447 5432 5415 5399 5383 5367 5350 5334 5320 5308